| time (UTC) | temp F | wind direction | speed MPH | gust MPH | rain 1hr in | rain 24hr in | rain mn in | humidity % | barometer mb |
| 20260508002040 | 64 | 293 | 6.0 | 10.0 | 0.00 | 0.00 | 0.00 | 90 | 1014.7 |
| 20260508001028 | 65 | 278 | 7.0 | 10.0 | 0.00 | 0.00 | 0.00 | 89 | 1014.7 |
| 20260508000037 | 65 | 285 | 8.0 | 11.0 | 0.00 | 0.00 | 0.00 | 89 | 1014.8 |
| 20260507235024 | 65 | 288 | 8.0 | 11.0 | 0.00 | 0.00 | 0.00 | 88 | 1014.8 |
| 20260507234026 | 65 | 287 | 7.0 | 11.0 | 0.00 | 0.00 | 0.00 | 88 | 1014.8 |
| 20260507233035 | 65 | 276 | 8.0 | 12.0 | 0.00 | 0.00 | 0.00 | 88 | 1014.6 |
| 20260507232024 | 66 | 303 | 6.0 | 11.0 | 0.00 | 0.00 | 0.00 | 87 | 1014.6 |
| 20260507231032 | 67 | 289 | 7.0 | 10.0 | 0.00 | 0.00 | 0.00 | 86 | 1014.8 |
| 20260507230024 | 67 | 285 | 6.0 | 9.0 | 0.00 | 0.00 | 0.00 | 85 | 1014.7 |
| 20260507225030 | 66 | 265 | 6.0 | 9.0 | 0.00 | 0.00 | 0.00 | 86 | 1014.9 |
| 20260507223037 | 65 | 227 | 6.0 | 11.0 | 0.00 | 0.00 | 0.00 | 89 | 1014.9 |
| 20260507221020 | 64 | 210 | 8.0 | 11.0 | 0.00 | 0.00 | 0.00 | 88 | 1015.0 |
| 20260507215027 | 65 | 222 | 9.0 | 11.0 | 0.00 | 0.00 | 0.00 | 88 | 1015.4 |
| 20260507214027 | 64 | 211 | 8.0 | 12.0 | 0.00 | 0.00 | 0.00 | 89 | 1015.6 |
| 20260507213035 | 65 | 221 | 9.0 | 12.0 | 0.00 | 0.00 | 0.00 | 87 | 1015.8 |
| 20260507212022 | 64 | 227 | 8.0 | 13.0 | 0.00 | 0.00 | 0.00 | 89 | 1015.9 |
| 20260507210024 | 64 | 255 | 10.0 | 14.0 | 0.00 | 0.00 | 0.00 | 89 | 1016.0 |
| 20260507205029 | 64 | 238 | 11.0 | 13.0 | 0.00 | 0.00 | 0.00 | 88 | 1016.2 |
| 20260507203036 | 64 | 228 | 10.0 | 13.0 | 0.00 | 0.00 | 0.00 | 89 | 1016.2 |
| 20260507202023 | 64 | 219 | 9.0 | 13.0 | 0.00 | 0.00 | 0.00 | 87 | 1016.1 |
| 20260507201034 | 63 | 227 | 7.0 | 12.0 | 0.00 | 0.00 | 0.00 | 87 | 1016.2 |
| 20260507200023 | 64 | 240 | 9.0 | 11.0 | 0.00 | 0.00 | 0.00 | 87 | 1016.3 |
| 20260507195031 | 64 | 204 | 8.0 | 11.0 | 0.00 | 0.00 | 0.00 | 87 | 1016.5 |
| 20260507194029 | 64 | 245 | 9.0 | 13.0 | 0.00 | 0.00 | 0.00 | 87 | 1016.5 |
| 20260507193021 | 64 | 228 | 8.0 | 13.0 | 0.00 | 0.00 | 0.00 | 88 | 1016.6 |
| 20260507192030 | 64 | 241 | 8.0 | 12.0 | 0.00 | 0.00 | 0.00 | 88 | 1016.7 |
| 20260507191038 | 64 | 198 | 9.0 | 13.0 | 0.00 | 0.00 | 0.00 | 88 | 1016.7 |
| 20260507190022 | 63 | 207 | 9.0 | 12.0 | 0.00 | 0.00 | 0.00 | 87 | 1016.8 |
| 20260507185028 | 63 | 230 | 9.0 | 12.0 | 0.00 | 0.00 | 0.00 | 87 | 1016.9 |
| 20260507181038 | 63 | 203 | 6.0 | 12.0 | 0.00 | 0.00 | 0.00 | 88 | 1017.0 |
| 20260507180026 | 64 | 227 | 7.0 | 9.0 | 0.00 | 0.00 | 0.00 | 88 | 1017.1 |
| 20260507175031 | 63 | 221 | 7.0 | 9.0 | 0.00 | 0.00 | 0.00 | 89 | 1017.1 |
| 20260507174031 | 63 | 238 | 7.0 | 10.0 | 0.00 | 0.00 | 0.00 | 89 | 1017.1 |
| 20260507173025 | 63 | 237 | 8.0 | 10.0 | 0.00 | 0.00 | 0.00 | 89 | 1017.2 |
| 20260507172034 | 63 | 227 | 6.0 | 11.0 | 0.00 | 0.00 | 0.00 | 89 | 1017.2 |
| 20260507171021 | 63 | 221 | 6.0 | 9.0 | 0.00 | 0.00 | 0.00 | 90 | 1017.2 |
| 20260507170029 | 62 | 243 | 7.0 | 9.0 | 0.00 | 0.00 | 0.00 | 90 | 1017.3 |
| 20260507165038 | 62 | 219 | 6.0 | 8.0 | 0.00 | 0.00 | 0.00 | 90 | 1017.3 |
| 20260507164035 | 62 | 222 | 5.0 | 8.0 | 0.00 | 0.00 | 0.00 | 90 | 1017.2 |
| 20260507163022 | 62 | 249 | 6.0 | 8.0 | 0.00 | 0.00 | 0.00 | 90 | 1017.2 |
| 20260507162028 | 62 | 231 | 5.0 | 8.0 | 0.00 | 0.00 | 0.00 | 90 | 1017.3 |
| 20260507160036 | 62 | 231 | 5.0 | 7.0 | 0.00 | 0.00 | 0.00 | 92 | 1017.3 |
| 20260507155020 | 61 | 225 | 5.0 | 8.0 | 0.00 | 0.00 | 0.00 | 92 | 1017.4 |
| 20260507154037 | 61 | 193 | 2.0 | 6.0 | 0.00 | 0.00 | 0.00 | 93 | 1017.3 |
| 20260507153028 | 61 | 310 | 4.0 | 6.0 | 0.00 | 0.00 | 0.00 | 93 | 1017.4 |
| 20260507152036 | 61 | 310 | 2.0 | 6.0 | 0.00 | 0.00 | 0.00 | 93 | 1017.4 |
| 20260507151022 | 61 | 310 | 3.0 | 4.0 | 0.00 | 0.00 | 0.00 | 94 | 1017.4 |
| 20260507150029 | 60 | 310 | 0.0 | 0.0 | 0.00 | 0.00 | 0.00 | 94 | 1017.4 |
| 20260507145039 | 60 | 310 | 0.0 | 3.0 | 0.00 | 0.00 | 0.00 | 94 | 1017.4 |
| 20260507144034 | 60 | 310 | 2.0 | 4.0 | 0.00 | 0.00 | 0.00 | 94 | 1017.2 |
| 20260507143022 | 60 | 310 | 3.0 | 5.0 | 0.00 | 0.00 | 0.00 | 95 | 1017.3 |
| 20260507142029 | 60 | 310 | 0.0 | 0.0 | 0.00 | 0.00 | 0.00 | 95 | 1017.1 |
| 20260507140034 | 59 | 310 | 0.0 | 0.0 | 0.00 | 0.00 | 0.00 | 95 | 1016.9 |
| 20260507134039 | 58 | 310 | 0.0 | 0.0 | 0.00 | 0.00 | 0.00 | 95 | 1016.6 |
| 20260507133027 | 58 | 310 | 0.0 | 0.0 | 0.00 | 0.00 | 0.00 | 95 | 1016.6 |
| 20260507131025 | 57 | 310 | 0.0 | 0.0 | 0.00 | 0.00 | 0.00 | 94 | 1016.5 |
| 20260507130022 | 57 | 310 | 0.0 | 0.0 | 0.00 | 0.00 | 0.00 | 94 | 1016.2 |
| 20260507125028 | 57 | 310 | 0.0 | 0.0 | 0.00 | 0.00 | 0.00 | 94 | 1016.2 |
| 20260507124025 | 57 | 311 | 0.0 | 0.0 | 0.00 | 0.00 | 0.00 | 94 | 1016.3 |
| 20260507123036 | 57 | 310 | 0.0 | 0.0 | 0.00 | 0.00 | 0.00 | 94 | 1016.2 |
| 20260507122022 | 57 | 310 | 0.0 | 0.0 | 0.00 | 0.00 | 0.00 | 94 | 1016.2 |
| 20260507121030 | 57 | 310 | 0.0 | 0.0 | 0.00 | 0.00 | 0.00 | 94 | 1016.3 |
| 20260507120037 | 57 | 310 | 0.0 | 0.0 | 0.00 | 0.00 | 0.00 | 94 | 1016.4 |
| 20260507115027 | 57 | 310 | 0.0 | 0.0 | 0.00 | 0.00 | 0.00 | 94 | 1016.4 |
| 20260507114023 | 58 | 310 | 0.0 | 0.0 | 0.00 | 0.00 | 0.00 | 95 | 1016.4 |
| 20260507113030 | 58 | 310 | 0.0 | 0.0 | 0.00 | 0.00 | 0.00 | 95 | 1016.5 |
| 20260507112036 | 58 | 310 | 0.0 | 0.0 | 0.00 | 0.00 | 0.00 | 95 | 1016.5 |
| 20260507111028 | 58 | 310 | 0.0 | 0.0 | 0.00 | 0.00 | 0.00 | 95 | 1016.6 |
| 20260507110034 | 58 | 310 | 0.0 | 0.0 | 0.00 | 0.00 | 0.00 | 95 | 1016.5 |
| 20260507105020 | 58 | 310 | 0.0 | 0.0 | 0.00 | 0.00 | 0.00 | 95 | 1016.7 |
| 20260507104036 | 58 | 310 | 0.0 | 0.0 | 0.00 | 0.00 | 0.00 | 95 | 1016.7 |
| 20260507103028 | 58 | 310 | 0.0 | 0.0 | 0.00 | 0.00 | 0.00 | 95 | 1016.7 |
| 20260507102036 | 58 | 310 | 0.0 | 0.0 | 0.00 | 0.00 | 0.00 | 95 | 1016.7 |
| 20260507101022 | 58 | 310 | 0.0 | 0.0 | 0.00 | 0.00 | 0.00 | 95 | 1016.7 |
| 20260507100020 | 58 | 310 | 0.0 | 0.0 | 0.00 | 0.00 | 0.00 | 95 | 1016.7 |
| 20260507095029 | 59 | 310 | 0.0 | 0.0 | 0.00 | 0.00 | 0.00 | 94 | 1016.6 |
| 20260507094027 | 59 | 310 | 0.0 | 0.0 | 0.00 | 0.00 | 0.00 | 95 | 1016.8 |
| 20260507093033 | 59 | 310 | 0.0 | 0.0 | 0.00 | 0.00 | 0.00 | 95 | 1016.9 |
| 20260507092021 | 59 | 310 | 0.0 | 0.0 | 0.00 | 0.00 | 0.00 | 94 | 1017.1 |
| 20260507091032 | 59 | 310 | 0.0 | 0.0 | 0.00 | 0.00 | 0.00 | 94 | 1017.1 |
| 20260507090039 | 59 | 310 | 0.0 | 0.0 | 0.00 | 0.00 | 0.00 | 94 | 1017.1 |
| 20260507085024 | 59 | 310 | 0.0 | 0.0 | 0.00 | 0.00 | 0.00 | 94 | 1017.3 |
| 20260507084022 | 60 | 310 | 0.0 | 0.0 | 0.00 | 0.00 | 0.00 | 94 | 1017.6 |
| 20260507083033 | 60 | 310 | 0.0 | 0.0 | 0.00 | 0.00 | 0.00 | 94 | 1017.6 |
| 20260507082021 | 60 | 310 | 0.0 | 0.0 | 0.00 | 0.00 | 0.00 | 94 | 1017.5 |
| 20260507081028 | 60 | 310 | 0.0 | 0.0 | 0.00 | 0.00 | 0.00 | 94 | 1017.7 |
| 20260507080035 | 60 | 310 | 0.0 | 0.0 | 0.00 | 0.00 | 0.00 | 94 | 1017.7 |
| 20260507075026 | 60 | 310 | 0.0 | 0.0 | 0.00 | 0.00 | 0.00 | 94 | 1017.7 |
| 20260507072024 | 61 | 310 | 3.0 | 5.0 | 0.00 | 0.00 | 0.00 | 93 | 1017.6 |
| 20260507071035 | 61 | 310 | 1.0 | 4.0 | 0.00 | 0.00 | 0.00 | 93 | 1017.6 |
| 20260507070034 | 61 | 310 | 1.0 | 5.0 | 0.00 | 0.00 | 0.00 | 93 | 1017.8 |
| 20260507063030 | 61 | 324 | 5.0 | 8.0 | 0.00 | 0.00 | 0.00 | 93 | 1018.1 |
| 20260507062021 | 61 | 328 | 1.0 | 6.0 | 0.00 | 0.00 | 0.00 | 92 | 1018.0 |
| 20260507061028 | 61 | 328 | 0.0 | 6.0 | 0.00 | 0.00 | 0.00 | 92 | 1018.0 |
| 20260507060035 | 61 | 328 | 3.0 | 6.0 | 0.00 | 0.00 | 0.00 | 92 | 1017.9 |
| 20260507054042 | 61 | 328 | 4.0 | 10.0 | 0.00 | 0.00 | 0.00 | 92 | 1018.0 |
| 20260507053020 | 61 | 4 | 4.0 | 9.0 | 0.00 | 0.00 | 0.00 | 92 | 1017.7 |
| 20260507052042 | 61 | 336 | 5.0 | 9.0 | 0.00 | 0.00 | 0.00 | 91 | 1017.7 |
| 20260507051047 | 61 | 339 | 5.0 | 8.0 | 0.00 | 0.00 | 0.00 | 91 | 1017.7 |
| 20260507050037 | 62 | 332 | 5.0 | 6.0 | 0.00 | 0.00 | 0.00 | 91 | 1017.7 |
| 20260507045046 | 62 | 332 | 4.0 | 7.0 | 0.00 | 0.00 | 0.00 | 91 | 1017.6 |
| 20260507044046 | 62 | 331 | 4.0 | 7.0 | 0.00 | 0.00 | 0.00 | 90 | 1017.6 |
| 20260507043024 | 62 | 331 | 4.0 | 8.0 | 0.00 | 0.00 | 0.00 | 90 | 1017.5 |
| 20260507042040 | 62 | 332 | 4.0 | 7.0 | 0.00 | 0.00 | 0.00 | 89 | 1017.4 |
| 20260507041033 | 62 | 333 | 5.0 | 8.0 | 0.00 | 0.00 | 0.00 | 89 | 1017.4 |
| 20260507040024 | 62 | 307 | 5.0 | 9.0 | 0.00 | 0.00 | 0.00 | 89 | 1017.4 |
| 20260507035046 | 62 | 330 | 4.0 | 6.0 | 0.00 | 0.00 | 0.00 | 89 | 1017.3 |
| 20260507034042 | 62 | 312 | 4.0 | 8.0 | 0.00 | 0.00 | 0.00 | 89 | 1017.2 |
| 20260507033024 | 62 | 326 | 3.0 | 8.0 | 0.00 | 0.00 | 0.00 | 89 | 1017.2 |
| 20260507032046 | 62 | 316 | 3.0 | 10.0 | 0.00 | 0.00 | 0.00 | 89 | 1017.1 |
| 20260507031038 | 62 | 340 | 5.0 | 11.0 | 0.00 | 0.00 | 0.00 | 89 | 1017.0 |
| 20260507030049 | 62 | 330 | 3.0 | 9.0 | 0.00 | 0.00 | 0.00 | 89 | 1016.9 |
| 20260507024040 | 62 | 295 | 8.0 | 11.0 | 0.00 | 0.00 | 0.00 | 88 | 1016.8 |
| 20260507023019 | 63 | 317 | 7.0 | 12.0 | 0.00 | 0.00 | 0.00 | 87 | 1016.8 |
| 20260507022041 | 63 | 313 | 6.0 | 10.0 | 0.00 | 0.00 | 0.00 | 86 | 1016.6 |
| 20260507020037 | 63 | 287 | 9.0 | 11.0 | 0.00 | 0.00 | 0.00 | 89 | 1016.6 |
| 20260507015047 | 63 | 4 | 7.0 | 13.0 | 0.00 | 0.00 | 0.00 | 88 | 1016.6 |
| 20260507014046 | 63 | 306 | 9.0 | 13.0 | 0.00 | 0.00 | 0.00 | 87 | 1016.5 |
| 20260507013036 | 64 | 320 | 8.0 | 12.0 | 0.00 | 0.00 | 0.00 | 87 | 1016.6 |
| 20260507012045 | 64 | 291 | 6.0 | 15.0 | 0.00 | 0.00 | 0.00 | 88 | 1016.4 |
| 20260507011020 | 64 | 330 | 9.0 | 13.0 | 0.00 | 0.00 | 0.00 | 87 | 1016.4 |
| 20260507005042 | 64 | 270 | 10.0 | 16.0 | 0.00 | 0.00 | 0.00 | 87 | 1016.3 |
| 20260507004041 | 64 | 299 | 10.0 | 15.0 | 0.00 | 0.00 | 0.00 | 88 | 1016.3 |